Regional Weather Roundup
Issued by NWS Jackson, KY

Home | Current Version | Previous Version | Text Only | Print | Product List | Glossary Off
Versions: 1 2 3 4 5 6 7 8 9 10 11 12 13 14 15 16 17 18 19 20 21 22 23 24 25 26 27 28 29 30 31 32 33 34 35 36 37 38 39 40 41 42 43 44 45 46 47 48 49 50

939
ASUS43 KJKL 201510
RWRJKL

EAST KENTUCKY HOURLY WEATHER ROUNDUP
NATIONAL WEATHER SERVICE JACKSON KY
1100 AM EDT WED SEP 20 2017

NOTE: "FAIR" INDICATES FEW OR NO CLOUDS BELOW 12,000 FEET WITH
NO SIGNIFICANT WEATHER AND/OR OBSTRUCTIONS TO VISIBILITY.

* THESE REPORTS ARE NOT UNDER NWS QUALITY CONTROL AND MAY NOT
  REPORT WEATHER SUCH AS PRECIPITATION AND FOG.

KYZ079-080-083-085-087-088-110-112-115-119-120-201600
...EASTERN KENTUCKY...

CITY           SKY/WX    TMP DP  RH WIND       PRES   REMARKS
JACKSON        MOSUNNY   73  68  84 CALM      30.10S
LONDON         SUNNY     75  66  73 VRB3      30.10S
SOMERSET*      SUNNY     73  64  73 CALM      30.11R
MONTICELLO*    MOSUNNY   77  68  73 NE7       30.11S
WILLIAMSBURG*  SUNNY     73  68  83 CALM      30.10F
MIDDLESBORO*   PTSUNNY   69  66  91 CALM      30.12F
HARLAN APT*    CLOUDY    70  63  78 CALM      30.13S
PIKE CO APT*   PTSUNNY   69  69 100 CALM      30.11S
BIG SANDY APT* CLOUDY    70  70 100 W5        30.10S
MOREHEAD APT*  LGT RAIN  72  70  94 CALM      30.10S
$$

KYZ035-036-041-042-044-050-067-078-099-201600
...CENTRAL KENTUCKY...

CITY           SKY/WX    TMP DP  RH WIND       PRES   REMARKS
MT STERLING*   PTSUNNY   72  70  94 CALM      30.09F
FLEMING/MASON* CLOUDY    73  69  87 CALM      30.09S
DANVILLE*      SUNNY     75  68  78 CALM      30.09S
LEXINGTON      SUNNY     76  70  82 SE5       30.08S
FRANKFORT      SUNNY     76  68  76 CALM      30.05S
LOUISVILLE     MOSUNNY   77  70  79 S5        30.04R
LEBANON*         N/A     75  68  78 CALM      30.07S
GLASGOW*       PTSUNNY   78  69  74 W3        30.07S
BOWLING GREEN  PTSUNNY   76  71  85 SW5       30.05S
$$

KYZ091>093-OHZ055-061-077-WVZ005-015-034-035-042-201600
...SOUTHERN OHIO/WEST VIRGINIA...

CITY           SKY/WX    TMP DP  RH WIND       PRES   REMARKS
COVINGTON      MOSUNNY   75  73  93 VRB3      30.05S
COLUMBUS       MOSUNNY   76  69  79 W3        30.04F
DAYTON         MOSUNNY   74  69  85 SW6       30.06S
WILMINGTON     SUNNY     75  69  81 S3        30.06S
HUNTINGTON     PTSUNNY   77  68  73 VRB5      30.07S
CHARLESTON     MOSUNNY   77  66  68 VRB3      30.07S
PINEVILLE*     CLOUDY    72  65  78 MISG      30.17R
BECKLEY        PTSUNNY   70  63  78 VRB5      30.14R
BLUEFIELD      PTSUNNY   70  62  76 W7        30.17S
LOGAN CO APT*  CLOUDY    72  68  88 CALM      30.11S
$$

VAZ002-007-008-TNZ017-027-036-066-071-201600
...SOUTHWEST VIRGINIA/EAST TENNESSEE...

CITY           SKY/WX    TMP DP  RH WIND       PRES   REMARKS
WISE*          CLOUDY    73  61  64 W3        30.18R
JONESVILLE*      N/A     73  64  73 CALM      30.14S
ABINGDON*      CLOUDY    76  64  65 SW5       30.15R
BRISTOL        MOSUNNY   73  64  73 CALM      30.12S
MORRISTOWN*    SUNNY     77  63  61 CALM      30.11S
SEVIERVILLE*   SUNNY     75  61  60 VRB3      30.10R
KNOXVILLE      MOSUNNY   73  64  73 CALM      30.10R
LAFOLLETTE*    CLOUDY    66  66 100 CALM      30.15S
OAK RIDGE      CLOUDY    68  64  87 CALM      30.12S
CROSSVILLE     SUNNY     75  66  73 W7        30.14R
NASHVILLE      MOSUNNY   78  69  73 S3        30.07S
$$

...KEY TO REMARKS...
VSB - VISIBILITY IN MILES
WCI - WIND CHILL INDEX
HX  - HEAT INDEX

$$




USA.gov is the U.S. government's official web portal to all federal, state and local government web resources and services.